• In Latvia
  • List of Countries
  • For 7 days
  • Water Temperature
  • Satellite Maps
  • Weather Map
  • Weather Widgets
  • user-avatar
    Login

    Hourly Weather Dustobod

    Today, 21 November, Tuesday

    Time Temperature Precipitation Wind Pressure Humidity
    00:00 +9°C° 0 mm 1 mps 744 mmHg 31%
    01:00 +9°C° 0 mm 1 mps 744 mmHg 31%
    02:00 +8°C° 0 mm 1 mps 744 mmHg 31%
    03:00 +8°C° 0 mm 1 mps 744 mmHg 30%
    04:00 +8°C° 0 mm 1 mps 743 mmHg 30%
    05:00 +7°C° 0 mm 1 mps 743 mmHg 29%
    06:00 +8°C° 0 mm 1 mps 743 mmHg 29%
    07:00 +8°C° 0 mm 1 mps 743 mmHg 28%
    08:00 +8°C° 0 mm 1 mps 743 mmHg 27%
    09:00 +10°C° 0 mm 2 mps 743 mmHg 22%
    10:00 +14°C° 0 mm 2 mps 743 mmHg 18%
    11:00 +17°C° 0 mm 3 mps 743 mmHg 13%
    12:00 +18°C° 0 mm 3 mps 743 mmHg 12%
    13:00 +19°C° 0 mm 4 mps 742 mmHg 11%
    14:00 +20°C° 0 mm 4 mps 742 mmHg 9%
    15:00 +19°C° 0 mm 3 mps 742 mmHg 11%
    16:00 +17°C° 0 mm 3 mps 741 mmHg 12%
    17:00 +16°C° 0 mm 2 mps 741 mmHg 13%
    18:00 +15°C° 0 mm 2 mps 741 mmHg 14%
    19:00 +14°C° 0 mm 2 mps 741 mmHg 15%
    20:00 +12°C° 0 mm 2 mps 741 mmHg 17%
    21:00 +12°C° 0 mm 2 mps 741 mmHg 17%
    22:00 +10°C° 0 mm 2 mps 741 mmHg 17%
    23:00 +10°C° 0 mm 2 mps 740 mmHg 17%

    Tomorrow, 22 November, Wednesday

    Time Temperature Precipitation Wind Pressure Humidity
    00:00 +10°C° 0 mm 2 mps 740 mmHg 16%
    01:00 +9°C° 0 mm 2 mps 740 mmHg 16%
    02:00 +9°C° 0 mm 2 mps 740 mmHg 15%
    03:00 +9°C° 0 mm 3 mps 739 mmHg 16%
    04:00 +9°C° 0 mm 3 mps 739 mmHg 16%
    05:00 +9°C° 0 mm 3 mps 739 mmHg 16%
    06:00 +9°C° 0 mm 3 mps 739 mmHg 16%
    07:00 +9°C° 0 mm 3 mps 739 mmHg 15%
    08:00 +9°C° 0 mm 3 mps 739 mmHg 15%
    09:00 +12°C° 0 mm 4 mps 739 mmHg 13%
    10:00 +15°C° 0 mm 4 mps 739 mmHg 10%
    11:00 +19°C° 0 mm 5 mps 739 mmHg 8%
    12:00 +20°C° 0 mm 5 mps 739 mmHg 7%
    13:00 +21°C° 0 mm 5 mps 738 mmHg 6%
    14:00 +22°C° 0 mm 5 mps 738 mmHg 6%
    15:00 +20°C° 0 mm 5 mps 738 mmHg 7%
    16:00 +19°C° 0 mm 4 mps 738 mmHg 8%
    17:00 +17°C° 0 mm 3 mps 737 mmHg 9%
    18:00 +16°C° 0 mm 3 mps 737 mmHg 10%
    19:00 +14°C° 0 mm 3 mps 737 mmHg 11%
    20:00 +13°C° 0 mm 2 mps 737 mmHg 12%
    21:00 +13°C° 0 mm 2 mps 737 mmHg 12%
    22:00 +12°C° 0 mm 2 mps 737 mmHg 12%
    23:00 +12°C° 0 mm 2 mps 737 mmHg 13%

    Day after tomorrow, 23 November, Thursday

    Time Temperature Precipitation Wind Pressure Humidity
    00:00 +12°C° 0 mm 2 mps 737 mmHg 12%
    01:00 +12°C° 0 mm 2 mps 737 mmHg 12%
    02:00 +12°C° 0 mm 2 mps 737 mmHg 12%
    03:00 +12°C° 0 mm 2 mps 736 mmHg 12%
    04:00 +12°C° 0 mm 2 mps 736 mmHg 12%
    05:00 +11°C° 0 mm 3 mps 736 mmHg 12%
    06:00 +11°C° 0 mm 3 mps 736 mmHg 12%
    07:00 +11°C° 0 mm 3 mps 737 mmHg 11%
    08:00 +12°C° 0 mm 3 mps 737 mmHg 11%
    09:00 +14°C° 0 mm 3 mps 737 mmHg 9%
    10:00 +18°C° 0 mm 4 mps 737 mmHg 8%
    11:00 +21°C° 0 mm 4 mps 737 mmHg 6%
    12:00 +22°C° 0 mm 4 mps 737 mmHg 6%
    13:00 +23°C° 0 mm 4 mps 737 mmHg 5%
    14:00 +25°C° 0 mm 4 mps 737 mmHg 5%
    15:00 +22°C° 0 mm 4 mps 737 mmHg 6%
    16:00 +21°C° 0 mm 4 mps 737 mmHg 6%
    17:00 +19°C° 0 mm 3 mps 737 mmHg 7%
    18:00 +18°C° 0 mm 3 mps 737 mmHg 8%
    19:00 +18°C° 0 mm 3 mps 737 mmHg 8%
    20:00 +17°C° 0 mm 3 mps 737 mmHg 9%
    21:00 +16°C° 0 mm 3 mps 737 mmHg 9%
    22:00 +16°C° 0 mm 3 mps 737 mmHg 9%
    23:00 +14°C° 0 mm 3 mps 737 mmHg 9%

    24 November, Friday

    Time Temperature Precipitation Wind Pressure Humidity
    00:00 +14°C° 0 mm 3 mps 737 mmHg 9%
    01:00 +14°C° 0 mm 3 mps 737 mmHg 9%
    02:00 +13°C° 0 mm 3 mps 737 mmHg 9%
    03:00 +13°C° 0 mm 3 mps 737 mmHg 9%
    04:00 +13°C° 0 mm 3 mps 737 mmHg 10%
    05:00 +13°C° 0 mm 3 mps 737 mmHg 10%
    06:00 +13°C° 0 mm 3 mps 738 mmHg 10%
    07:00 +13°C° 0 mm 3 mps 738 mmHg 10%
    08:00 +13°C° 0 mm 3 mps 738 mmHg 10%
    09:00 +16°C° 0 mm 3 mps 738 mmHg 9%
    10:00 +19°C° 0 mm 4 mps 738 mmHg 8%
    11:00 +21°C° 0 mm 4 mps 739 mmHg 7%
    12:00 +22°C° 0 mm 4 mps 739 mmHg 7%
    13:00 +24°C° 0 mm 3 mps 739 mmHg 6%
    14:00 +24°C° 0 mm 3 mps 739 mmHg 6%
    15:00 +22°C° 0 mm 3 mps 739 mmHg 7%
    16:00 +20°C° 0 mm 3 mps 739 mmHg 8%
    17:00 +18°C° 0 mm 3 mps 740 mmHg 9%
    18:00 +18°C° 0 mm 3 mps 740 mmHg 11%
    19:00 +17°C° 0 mm 2 mps 740 mmHg 12%
    20:00 +16°C° 0 mm 2 mps 740 mmHg 14%
    21:00 +16°C° 0 mm 2 mps 740 mmHg 15%
    22:00 +15°C° 0 mm 1 mps 740 mmHg 17%
    23:00 +14°C° 0 mm 1 mps 740 mmHg 19%

    25 November, Saturday

    Time Temperature Precipitation Wind Pressure Humidity
    00:00 +14°C° 0 mm 1 mps 739 mmHg 19%
    01:00 +14°C° 0 mm 1 mps 739 mmHg 20%
    02:00 +13°C° 0 mm 1 mps 739 mmHg 21%
    03:00 +13°C° 0 mm 1 mps 739 mmHg 21%
    04:00 +13°C° 0 mm 1 mps 739 mmHg 21%
    05:00 +12°C° 0 mm 1 mps 739 mmHg 21%
    06:00 +12°C° 0 mm 1 mps 739 mmHg 21%
    07:00 +12°C° 0 mm 1 mps 739 mmHg 20%
    08:00 +12°C° 0 mm 1 mps 739 mmHg 20%
    09:00 +14°C° 0 mm 1 mps 739 mmHg 16%
    10:00 +17°C° 0 mm 2 mps 739 mmHg 13%
    11:00 +19°C° 0 mm 2 mps 738 mmHg 10%
    12:00 +20°C° 0 mm 3 mps 738 mmHg 9%
    13:00 +21°C° 0 mm 3 mps 737 mmHg 9%
    14:00 +22°C° 0 mm 4 mps 737 mmHg 9%
    15:00 +21°C° 0 mm 3 mps 737 mmHg 10%
    16:00 +20°C° 0 mm 3 mps 737 mmHg 11%
    17:00 +18°C° 0 mm 2 mps 737 mmHg 12%
    18:00 +18°C° 0 mm 2 mps 737 mmHg 12%
    19:00 +18°C° 0 mm 2 mps 737 mmHg 13%
    20:00 +17°C° 0 mm 2 mps 738 mmHg 14%
    21:00 +17°C° 0 mm 2 mps 738 mmHg 15%
    22:00 +16°C° 0 mm 1 mps 738 mmHg 16%
    23:00 +16°C° 0 mm 1 mps 738 mmHg 18%

    26 November, Sunday

    Time Temperature Precipitation Wind Pressure Humidity
    00:00 +15°C° 0.1 mm 2 mps 739 mmHg 24%
    01:00 +15°C° 0.1 mm 2 mps 739 mmHg 30%
    02:00 +14°C° 0.1 mm 3 mps 740 mmHg 36%
    03:00 +13°C° 0.2 mm 3 mps 740 mmHg 43%
    04:00 +13°C° 0.2 mm 3 mps 741 mmHg 51%
    05:00 +12°C° 0.2 mm 3 mps 742 mmHg 59%
    06:00 +12°C° 0.2 mm 3 mps 742 mmHg 62%
    07:00 +11°C° 0.2 mm 3 mps 743 mmHg 65%
    08:00 +12°C° 0.2 mm 2 mps 743 mmHg 68%
    09:00 +12°C° 0.1 mm 3 mps 744 mmHg 64%
    10:00 +13°C° 0.1 mm 4 mps 744 mmHg 59%
    11:00 +14°C° 0.1 mm 4 mps 744 mmHg 55%
    12:00 +14°C° 0.3 mm 4 mps 744 mmHg 54%
    13:00 +14°C° 0.3 mm 4 mps 744 mmHg 53%
    14:00 +14°C° 0.3 mm 5 mps 743 mmHg 51%
    15:00 +13°C° 0.5 mm 4 mps 744 mmHg 54%
    16:00 +12°C° 0.5 mm 4 mps 744 mmHg 56%
    17:00 +12°C° 0.5 mm 3 mps 745 mmHg 59%
    18:00 +11°C° 0.5 mm 3 mps 745 mmHg 60%
    19:00 +10°C° 0.5 mm 3 mps 745 mmHg 62%
    20:00 +10°C° 0.5 mm 3 mps 746 mmHg 63%
    21:00 +10°C° 0.5 mm 2 mps 746 mmHg 65%
    22:00 +9°C° 0.5 mm 2 mps 746 mmHg 66%
    23:00 +9°C° 0.5 mm 2 mps 746 mmHg 67%
    Show more